Location: *
(34.8620°S, 39.3380°E)
Time: 22:23:29
(UTC+00:00)

Lacrosse 4 Rocket - Pass Details

Date: 07 December 2021
Orbit: 535 x 620 km, 68.0° (Epoch: 24 January)

Event Time Altitude Azimuth Distance (km) Brightness Sun altitude
Rises 17:59:13 0° 218° (SW) 2,725 6.6 -16.2°
Reaches altitude 10° 18:01:38 10° 229° (SW) 1,819 5.3 -16.5°
Maximum altitude 18:05:07 28° 288° (WNW) 1,028 2.9 -17.0°
Enters shadow 18:07:50 14° 342° (NNW) 1,542 3.3 -17.4°
